www.pogodaiklimat.ru

Погода и климат >> Архив погоды >> Россия >> Чукотка >> Уэлен


ПОГОДА в Уэлене

АРХИВ ПОГОДЫ в Уэлене

Время (UTC), дата Ветер
(напр.,м/с)
 
Видим.   Явления Облачность Т
(С)
Тd
(С)
f
(%)
Тe
(С)
Тes
(С)
Комфортность P
(гПа)
Po
(гПа)
Тmin
(С)
Tmax
(С)
R
(мм)
R24
(мм)
S
(см)
21 12.09 СЗ 6
{12}
50 км {ливн. осадки} 8/6 300 м
[St Ci fib]
+4.4 +0.5 76 -1 -0 995.4 994.5
00 13.09 СЗ 7
{10}
50 км {ливн. осадки} 10/9 600 м
[Sc Ci fib]
+5.2 +2.5 83 -0 -0 997.2 996.3
03 13.09 С 6
{9}
50 км 10/6 600 м
[Sc Ac trans Ci fib]
+5.0 +2.0 81 -0 0 998.8 997.9
06 13.09 С 6
{8}
50 км 10/8 600 м
[Cu Sc Ci fib]
+4.4 +1.6 82 -1 -1 999.3 998.4 +6.1 0.3
09 13.09 С 6
{8}
50 км 9/9 1000 м
[Sc]
+4.2 0.0 74 -1 -1 999.5 998.6
12 13.09 С 5
{7}
50 км 8/8 600 м
[Sc Ci fib]
+4.0 +0.6 78 -1 -1 999.2 998.3
15 13.09 С 5
{7}
50 км 9/9 600 м
[Sc]
+3.8 +0.4 78 -1 -1 998.9 998.0
18 13.09 З 4
{8}
20 км 8/6 300 м
[Cu Sc Ci fib]
+3.4 +0.5 81 -1 -1 999.5 998.6 +3.4
21 13.09 Ю 2
{6}
20 км {ливн. осадки} 8/8 300 м
[Cu Sc]
+3.1 +0.5 83 0 +1 1001.5 1000.6
00 14.09 СВ 2
{4}
20 км {ливн. осадки} 4/4 600 м
[Cu Sc]
+4.6 +2.1 84 +2 +4 1002.7 1001.8
03 14.09 Ю 3
{4}
20 км 6/6 600 м
[Cu Sc]
+5.0 +1.7 79 +2 +2 1003.6 1002.7
06 14.09 Ю 6
{8}
20 км 3/3 600 м
[Sc]
+3.8 -0.5 73 -2 -2 1004.6 1003.7 +5.5 0.0
09 14.09 Ю 7
{10}
35 км 4/1 600 м
[Sc Ci fib]
+3.6 -1.7 68 -2 -2 1006.0 1005.1
12 14.09 Ю 7
{9}
40 км 3/0
[Ci fib]
+3.6 -1.7 68 -2 -2 1006.2 1005.3
15 14.09 Ю 5
{9}
45 км 8/3 600 м
[Sc Ac trans Ci fib]
+3.2 -3.2 63 -2 -2 1006.2 1005.3
18 14.09 З 1
{7}
20 км 10/8 600 м
[Cu Sc Ac trans Ci fib]
+3.8 -2.1 65 +3 +3 1006.0 1005.1 +2.5
21 14.09 Ю 8
{10}
20 км 9/9 600 м
[Cu Sc]
+5.8 -1.5 59 +1 +1 1005.4 1004.5
00 15.09 Ю 3
{11}
19 км слабый ливневой дождь 10/10 300 м
[Cb cap]
+4.8 +1.8 81 +1 +1 1004.8 1003.9
03 15.09 Ю 12-14
{17}
20 км {ливн. осадки} 10/5 300 м
[Cu Sc Ci fib]
+6.5 +2.9 78 0 0 1001.2 1000.3
06 15.09 Ю 6
{15}
20 км {ливн. осадки} 10/9 600 м
[Cu Sc Ci fib]
+5.0 +3.0 87 -0 -0 1003.1 1002.2 +6.5 0.4
09 15.09 Ю 4
{7}
27 км 9/9 600 м
[Cu Sc]
+4.1 +1.0 80 -0 -0 1003.9 1003.0
12 15.09 Ю 2
{7}
25 км 9/9 600 м
[Cu Sc]
+4.2 +2.7 90 +1 +1 1003.9 1003.0
15 15.09 В 3
{5}
18 км слабый ливневой дождь 10/10 300 м
[Cb cap]
+4.0 +2.5 90 0 0 1003.1 1002.2
18 15.09 Ю 2
{6}
11 км слабый ливневой дождь 10/10 300 м
[Cb cap]
+4.3 +3.1 92 +1 +1 1002.3 1001.4 +3.3 2
21 15.09 ЮЗ 1
{7}
17 км {ливн. осадки} 10/10 300 м
[Cu Sc]
+3.6 +2.9 95 +2 +2 1002.7 1001.8
00 16.09 штиль 0
{4}
19 км {ливн. осадки} 9/9 300 м
[St]
+5.0 +4.3 95 +4 +4 1002.3 1001.4
03 16.09 СВ 3
{5}
20 км 10/9 200 м
[St Ci fib]
+5.0 +4.1 94 +1 +1 1002.0 1001.1
06 16.09 С 7
{8}
16 км в посл. час туман 10/10 100 м
[St]
+4.0 +3.8 99 -2 -2 1001.8 1000.9 +5.3 0.0
09 16.09 С 8
{10}
600 м туман ?/? +3.8 +3.8 100 -3 -3 1002.1 1001.2
12 16.09 С 7
{10}
14 км слабый ливневой дождь {туман} 10/10 200 м
[Cb cap]
+4.1 +3.6 97 -2 -2 1002.6 1001.7
15 16.09 С 8
{10}
17 км слабый ливневой дождь 10/10 200 м
[Cb cap]
+4.2 +3.5 95 -2 -2 1002.8 1001.9
18 16.09 С 10-11
{13}
18 км {ливн. осадки} 10/10 200 м
[St]
+4.8 +4.1 95 -2 -2 1003.6 1002.7 +3.8 1
21 16.09 С 12-15
{16}
20 км 10/10 300 м
[St]
+4.8 +3.6 92 -2 -2 1005.1 1004.2
00 17.09 С 13-15
{16}
20 км 10/10 300 м
[St]
+4.6 +2.4 86 -3 -3 1006.2 1005.3
03 17.09 С 12-15
{17}
20 км 10/9 300 м
[St Ci fib]
+4.4 +1.1 79 -3 -3 1007.3 1006.4
06 17.09 С 13-14
{16}
20 км 10/8 300 м
[St Ci fib]
+4.4 -0.1 73 -3 -3 1008.5 1007.6 +5.0
09 17.09 С 10-12
{15}
29 км 9/6 300 м
[St Ci fib]
+4.5 +0.9 77 -2 -2 1009.3 1008.4
12 17.09 С 8-10
{12}
30 км 10/9 300 м
[St Ci fib]
+4.4 +0.8 77 -2 -2 1009.6 1008.7
15 17.09 С 7
{12}
30 км 10/6 600 м
[Sc Ci fib]
+4.5 +0.9 77 -1 -1 1009.8 1008.9
18 17.09 С 8
{11}
20 км 10/5 600 м
[Cu Sc Ac trans Ci fib]
+4.1 +1.5 83 -2 -2 1010.0 1009.1 +3.9
21 17.09 С 9-10
{11}
20 км 10/9 600 м
[Cu Sc Ci fib]
+4.4 +0.8 77 -2 -2 1010.5 1009.6
00 18.09 С 8
{12}
20 км {ливн. осадки} 10/9 300 м
[Cu Sc Ci fib]
+4.5 +0.6 76 -1 -1 1010.7 1009.8
03 18.09 С 9-10
{11}
20 км 9/9 600 м
[Cu Sc]
+4.1 +0.7 78 -2 -2 1010.8 1009.9
06 18.09 С 8
{13}
20 км 9/9 300 м
[Cu Sc]
+3.6 +1.0 83 -3 -3 1011.5 1010.6 +4.6 0.0
09 18.09 С 10-11
{12}
30 км {ливн. осадки} 9/9 300 м
[Cu Sc]
+3.8 +0.7 80 -3 -3 1011.9 1011.0
12 18.09 С 8-10
{14}
30 км {ливн. осадки} 10/9 300 м
[Cu Sc Ci fib]
+3.6 +1.3 85 -3 -3 1012.5 1011.6
15 18.09 СЗ 9-10
{12}
35 км 5/5 600 м
[Cu Sc]
+3.8 +0.1 77 -3 -3 1012.9 1010.0
18 18.09 СЗ 4
{11}
50 км 6/6 600 м
[Cu Sc]
+1.9 -1.2 80 -3 -3 1013.6 1012.7 +1.6 0.0
21 18.09 З 3
{7}
50 км 4/3 600 м
[Sc Ci fib]
+2.9 -0.7 77 -1 +1 1014.6 1013.7
00 19.09 С 4
{6}
50 км 4/3 600 м
[Sc Ci fib]
+4.3 -1.2 67 0 +2 1014.7 1013.8
03 19.09 СВ 2
{5}
50 км 3/3 600 м
[Sc Ci fib]
+4.4 -0.7 69 +2 +3 1015.0 1014.1
06 19.09 В 2
{4}
50 км 6/3 600 м
[Sc Ci fib]
+3.6 -0.5 75 +1 +1 1015.3 1014.4 +4.5
09 19.09 СВ 5
{6}
50 км 10/8 600 м
[Sc Ci fib]
+3.8 -0.2 75 -1 -1 1015.3 1014.4
12 19.09 СВ 7
{8}
50 км 8/6 600 м
[Sc Ci fib]
+3.8 +0.1 77 -2 -2 1015.3 1014.4
15 19.09 СВ 9-10
{10}
50 км 8/8 600 м
[Sc Ci fib]
+4.2 +0.8 79 -2 -2 1015.4 1014.5
18 19.09 СВ 10-12
{12}
50 км 9/9 600 м
[Sc]
+4.2 -0.3 72 -2 -2 1016.0 1015.1 +3.6

 

Местоположение метеостанции Уэлен (Чукотка, Россия): широта 66.16 долгота -169.00 высота над уровнем моря 7 м.

В архиве по умолчанию представлена погода в Уэлене за последнюю неделю. Архивные данные за месяц целиком и за предыдущие месяцы, начиная с января 2011 года, Вы можете получить, выбрав интересующий диапазон дат из раскрывающегося списка и нажав кнопку "Ввод!".

Внимание! Время в таблицах - всемирное. Для получения местного времени необходимо прибавить поправку, которая в Уэлене равна 12 ч.

Смотрите также архив погоды в соседних городах и на ближайших метеорологических станциях:

Погода на Мысе Ванкарем (Чукотка, Россия) (320 км)
Погода в Эгвекиноте (Чукотка, Россия) (448 км)
Погода на Острове Врангеля (Чукотка, Россия) (648 км)

Пояснения к столбцам:

Ветер - указаны скорость ветра в м/с - средняя за 10 мин, порывы в срок и между сроками (в фигурных скобках) и направление, откуда дует ветер: С - северный, СВ - северо-восточный, В - восточный, ЮВ - юго-восточный, Ю - южный, ЮЗ - юго-западный, З - западный, СЗ - северо-западный.
Видимость - горизонтальная дальность видимости в метрах или километрах. При видимости от 1 до 10 км при отсутствии осадков обычно наблюдается дымка, при ухудшении видимости до 1 км и менее - туман. В сухую погоду видимость может ухудшаться дымом, пылью или мглою.
Явления - указаны атмосферные явления, наблюдавшиеся в срок или в последний час перед сроком; фигурными скобками обозначены явления, наблюдавшиеся между сроками (за 1-3 часа до срока); квадратными скобками обозначены град или гололедные отложения с указанием их диаметра в мм.
Облачность - указаны через наклонную черту общая и нижняя облачность в баллах и высота нижней границы облаков в метрах; квадратными скобками обозначены формы облаков: Ci - перистые, Cs - перисто-слоистые, Cc - перисто-кучевые, Ac - высококучевые, As - высокослоистые, Sc - слоисто-кучевые, Ns - слоисто-дождевые, Cu - кучевые, Cb - кучево-дождевые. Подробнее классификацию облаков см. в Атласе облаков (PDF).
T - Температура воздуха - температура, измеренная на высоте 2 м над землей.
Td - Температура точки росы - температура, при понижении до которой содержащийся в воздухе водяной пар достигнет насыщения.
f - Относительная влажность воздуха - влажноcть воздуха, измеренная на высоте 2 м над землей.
Te - Эффективная температура - температура, которую ощущает одетый по сезону человек в тени. Характеристика душности погоды. При расчете учитывается влияние влажности воздуха и скорости ветра на теплоощущения человека.
Tes - Эффективная температура на солнце - температура, которую ощущает человек, с поправкой на солнечный нагрев. Характеристика знойности погоды. Зависит от высоты солнца над горизонтом, облачности и скорости ветра. Ночью, в пасмурную погоду, а также при ветре 12 м/с и более поправка равна нулю.
P - Атмосферное давление - приведенное к уровню моря атмосферное давление.
Po - Атмосферное давление - измеренное на уровне метеостанции атмосферное давление.
Tmin - Минимальная температура - минимум температуры воздуха на высоте 2 м над землей.
Tmax - Максимальная температура - максимум температуры воздуха на высоте 2 м над землей.
R - Количество осадков - Количество выпавших осадков за период времени, мм. При наведении курсора мыши на число - период времени, за который выпало указанное количество осадков.
R24 - Количество осадков - Количество выпавших осадков за 24 часа, мм.
S - Снежный покров - Высота снежного покрова, см. При наведении курсора мыши на число - состояние снежного покрова и степень покрытия местности в баллах.